Berlin, NH

12:49 PM EDT on June 26, 2017 (GMT -0400)
Berlin Municipal

Weather History for KBML - May, 2012

Change the Weather History Date:

Thursday, May 3, 2012

  Actual Average Record
Temperature  
Mean Temperature 54 °F -  
Max Temperature 66 °F 59 °F 86 °F (2001)
Min Temperature 44 °F 31 °F 21 °F (2000)
Degree Days  
Heating Degree Days 11    
Growing Degree Days 4 (Base 50)    
Moisture  
Dew Point 43 °F    
Average Humidity 76    
Maximum Humidity 89    
Minimum Humidity 52    
Precipitation  
Precipitation 0.00 in - - ()
Sea Level Pressure  
Sea Level Pressure 30.12 in    
Wind  
Wind Speed 4 mph (SSE)    
Max Wind Speed 10 mph    
Max Gust Speed -    
Visibility 10 miles    
Events      
Averages and records for this station are not official NWS values.
T = Trace of Precipitation, MM = Missing Value Source: NWS Daily Summary

Daily Weather History Graph

Daily Weather History Graph

Search for Another Location

Airport or City:

Trip Planner

Search our weather history database for the weather conditions in past years. The results will help you decide how hot, cold, wet, or windy it might be!

Date:

Astronomy

May. 03, 2012 Rise Set
Actual Time 5:31 AM EDT 7:52 PM EDT
Civil Twilight 4:59 AM EDT 8:24 PM EDT
Nautical Twilight 4:18 AM EDT 9:05 PM EDT
Astronomical Twilight 3:33 AM EDT 9:50 PM EDT
Moon 5:07 PM EDT (5/3) 3:40 AM EDT (5/3)
Length of Visible Light 15h 25m
Length of Day
14h 20m
Waxing Gibbous, 91% of the Moon is Illuminated
May 3
Waxing Gibbous
May 5
Full
May 12
Last Quarter
May 20
New
May 28
First Quarter

Hourly Weather History & Observations

Time (EDT) Temp. Windchill Dew Point Humidity Pressure Visibility Wind Dir Wind Speed Gust Speed Precip Events Conditions
12:22 AM 44.6 °F 41.4 °F 41.0 °F 87% 30.16 in 10.0 mi SE 5.8 mph - N/A   Overcast
12:52 AM 45.0 °F 41.2 °F 41.0 °F 86% 30.17 in 10.0 mi SSE 6.9 mph - N/A   Overcast
1:52 AM 45.0 °F 41.8 °F 39.9 °F 82% 30.14 in 10.0 mi SSE 5.8 mph - N/A   Overcast
2:15 AM 44.6 °F 42.2 °F 39.2 °F 81% 30.12 in 10.0 mi SSE 4.6 mph - N/A   Overcast
2:24 AM 44.6 °F 41.4 °F 39.2 °F 81% 30.11 in 10.0 mi SE 5.8 mph - N/A   Overcast
2:52 AM 45.0 °F - 39.9 °F 82% 30.13 in 10.0 mi Calm Calm - N/A   Overcast
3:02 AM 44.6 °F 43.1 °F 39.2 °F 81% 30.10 in 10.0 mi SE 3.5 mph - N/A   Overcast
3:18 AM 44.6 °F 43.1 °F 39.2 °F 81% 30.11 in 10.0 mi South 3.5 mph - N/A   Overcast
3:43 AM 44.6 °F - 39.2 °F 81% 30.11 in 10.0 mi Calm Calm - N/A   Overcast
3:52 AM 45.0 °F - 39.9 °F 82% 30.14 in 10.0 mi Calm Calm - N/A   Overcast
4:52 AM 44.1 °F - 41.0 °F 89% 30.15 in 10.0 mi Calm Calm - 0.00 in   Overcast
5:52 AM 44.1 °F - 41.0 °F 89% 30.17 in 10.0 mi Calm Calm - N/A   Overcast
6:52 AM 45.0 °F - 41.0 °F 86% 30.17 in 10.0 mi Calm Calm - N/A   Overcast
7:29 AM 44.6 °F - 41.0 °F 87% 30.14 in 10.0 mi Calm Calm - N/A   Overcast
7:52 AM 46.0 °F - 41.0 °F 83% 30.17 in 10.0 mi Calm Calm - N/A   Overcast
8:52 AM 48.0 °F - 41.0 °F 77% 30.15 in 10.0 mi SSW 5.8 mph - N/A   Overcast
9:28 AM 48.2 °F - 41.0 °F 76% 30.15 in 10.0 mi SSW 3.5 mph - N/A   Overcast
9:52 AM 48.9 °F - 41.0 °F 74% 30.17 in 10.0 mi Calm Calm - N/A   Overcast
10:52 AM 51.1 °F - 42.1 °F 71% 30.18 in 10.0 mi Calm Calm - N/A   Overcast
11:33 AM 55.4 °F - 42.8 °F 63% 30.15 in 10.0 mi Calm Calm - N/A   Overcast
11:52 AM 55.0 °F - 43.0 °F 64% 30.17 in 10.0 mi SSE 3.5 mph - N/A   Overcast
12:52 PM 57.9 °F - 44.1 °F 60% 30.13 in 10.0 mi Calm Calm - N/A   Overcast
1:47 PM 60.8 °F - 44.6 °F 55% 30.10 in 10.0 mi Calm Calm - N/A   Overcast
1:52 PM 60.1 °F - 45.0 °F 57% 30.11 in 10.0 mi SSE 3.5 mph - N/A   Overcast
2:52 PM 62.1 °F - 46.0 °F 56% 30.09 in 10.0 mi Variable 3.5 mph - N/A   Mostly Cloudy
4:52 PM 64.9 °F - 46.9 °F 52% 30.05 in 10.0 mi South 4.6 mph - N/A   Scattered Clouds
5:52 PM 62.1 °F - 46.9 °F 58% 30.05 in 10.0 mi SSE 10.4 mph - N/A   Clear
6:52 PM 57.0 °F - 46.9 °F 69% 30.06 in 10.0 mi SSE 6.9 mph - N/A   Clear
7:52 PM 54.0 °F - 46.9 °F 77% 30.08 in 10.0 mi South 5.8 mph - N/A   Clear
8:52 PM 51.1 °F - 46.0 °F 83% 30.08 in 10.0 mi SSE 6.9 mph - N/A   Clear
9:52 PM 50.0 °F - 46.0 °F 86% 30.08 in 10.0 mi SE 3.5 mph - N/A   Overcast
10:52 PM 50.0 °F - 46.0 °F 86% 30.07 in 10.0 mi South 3.5 mph - N/A   Overcast
11:52 PM 50.0 °F - 46.0 °F 86% 30.06 in 10.0 mi Calm Calm - N/A   Overcast